Stevensville, MD

7:37 PM EDT on April 24, 2018 (GMT -0400)
Stevensville

Weather History for KW29 - October, 2013

Change the Weather History Date:

Monday, October 7, 2013

  Actual Average (KESN) Record (KESN)
Temperature  
Mean Temperature 68 °F -  
Max Temperature 77 °F 73 °F 87 °F (2007)
Min Temperature 60 °F 49 °F 32 °F (1964)
Cooling Degree Days 4    
Growing Degree Days 18 (Base 50)    
Moisture  
Dew Point 63 °F    
Average Humidity 82    
Maximum Humidity 100    
Minimum Humidity 48    
Precipitation  
Precipitation 0.00 in - - ()
Sea Level Pressure  
Sea Level Pressure 29.91 in    
Wind  
Wind Speed 12 mph (SSW)    
Max Wind Speed 18 mph    
Max Gust Speed 29 mph    
Visibility 10 miles    
Events Rain    
Averages and records for this station are not official NWS values.
T = Trace of Precipitation, MM = Missing Value Source: NWS Daily Summary

Daily Weather History Graph

Daily Weather History Graph

Search for Another Location

Airport or City:

Astronomy

Oct. 07, 2013 Rise Set
Actual Time 7:07 AM EDT 6:38 PM EDT
Civil Twilight 6:40 AM EDT 7:04 PM EDT
Nautical Twilight 6:09 AM EDT 7:35 PM EDT
Astronomical Twilight 5:38 AM EDT 8:06 PM EDT
Moon 9:53 AM EDT (10/7) 8:23 PM EDT (10/7)
Length of Visible Light 12h 24m
Length of Day
11h 31m
Waxing Crescent, 8% of the Moon is Illuminated
Oct 7
Waxing Crescent
Oct 11
First Quarter
Oct 18
Full
Oct 26
Last Quarter
Nov 3
New

Hourly Weather History & Observations

Time (EDT) Temp. Dew Point Humidity Pressure Visibility Wind Dir Wind Speed Gust Speed Precip Events Conditions
12:02 AM 71.6 °F 68.0 °F 88% 29.96 in 10.0 mi SSE 13.8 mph 18.4 mph N/A   Clear
12:22 AM 71.6 °F 68.0 °F 88% 29.96 in 10.0 mi SSE 12.7 mph 19.6 mph N/A   Clear
12:42 AM 71.6 °F 68.0 °F 88% 29.95 in 10.0 mi SSE 13.8 mph - N/A   Clear
1:02 AM 71.6 °F 68.0 °F 88% 29.95 in 10.0 mi SSE 12.7 mph 19.6 mph N/A   Clear
1:22 AM 71.6 °F 68.0 °F 88% 29.95 in 10.0 mi SSE 11.5 mph 18.4 mph N/A   Clear
1:42 AM 71.6 °F 68.0 °F 88% 29.95 in 10.0 mi SSE 11.5 mph 18.4 mph N/A   Clear
2:02 AM 71.6 °F 68.0 °F 88% 29.94 in 10.0 mi SSE 10.4 mph 17.3 mph N/A   Clear
2:22 AM 71.6 °F 68.0 °F 88% 29.94 in 10.0 mi SSE 11.5 mph 16.1 mph N/A   Clear
2:42 AM 71.6 °F 68.0 °F 88% 29.93 in 10.0 mi SSE 12.7 mph - N/A   Clear
3:02 AM 71.6 °F 68.0 °F 88% 29.92 in 10.0 mi SSE 11.5 mph 16.1 mph N/A   Clear
3:22 AM 71.6 °F 68.0 °F 88% 29.92 in 10.0 mi SSE 10.4 mph - N/A   Clear
3:42 AM 71.6 °F 68.0 °F 88% 29.91 in 10.0 mi SSE 11.5 mph 17.3 mph N/A   Clear
4:02 AM 71.6 °F 68.0 °F 88% 29.90 in 10.0 mi SE 10.4 mph - N/A   Clear
4:22 AM 71.6 °F 69.8 °F 94% 29.90 in 10.0 mi SSE 8.1 mph - N/A   Mostly Cloudy
4:43 AM 71.6 °F 68.0 °F 88% 29.89 in 10.0 mi SE 11.5 mph - N/A   Mostly Cloudy
5:03 AM 71.6 °F 68.0 °F 88% 29.89 in 10.0 mi SSE 10.4 mph - N/A   Mostly Cloudy
5:23 AM 71.6 °F 69.8 °F 94% 29.89 in 10.0 mi SSE 6.9 mph - N/A   Mostly Cloudy
5:43 AM 71.6 °F 69.8 °F 94% 29.89 in 10.0 mi SSE 8.1 mph - N/A   Overcast
6:03 AM 71.6 °F 69.8 °F 94% 29.88 in 10.0 mi SSE 10.4 mph 17.3 mph N/A   Overcast
6:23 AM 71.6 °F 69.8 °F 94% 29.88 in 10.0 mi SSE 11.5 mph - N/A   Overcast
6:43 AM 71.6 °F 69.8 °F 94% 29.87 in 10.0 mi SSE 11.5 mph - N/A   Overcast
7:03 AM 71.6 °F 69.8 °F 94% 29.87 in 10.0 mi SSE 10.4 mph - N/A   Overcast
7:23 AM 71.6 °F 69.8 °F 94% 29.86 in 10.0 mi SSE 9.2 mph - N/A   Overcast
7:43 AM 71.6 °F 69.8 °F 94% 29.86 in 10.0 mi SSE 9.2 mph - N/A   Overcast
8:03 AM 71.6 °F 69.8 °F 94% 29.85 in 10.0 mi SSE 9.2 mph - N/A   Overcast
8:23 AM 71.6 °F 69.8 °F 94% 29.84 in 10.0 mi SSE 11.5 mph 16.1 mph N/A   Overcast
8:43 AM 73.4 °F 69.8 °F 88% 29.84 in 10.0 mi South 12.7 mph 17.3 mph N/A   Overcast
9:03 AM 73.4 °F 69.8 °F 88% 29.85 in 10.0 mi South 10.4 mph 18.4 mph N/A   Overcast
9:23 AM 73.4 °F 69.8 °F 88% 29.84 in 10.0 mi SSE 16.1 mph 24.2 mph N/A   Overcast
9:43 AM 73.4 °F 69.8 °F 88% 29.84 in 10.0 mi South 16.1 mph 24.2 mph N/A   Overcast
10:03 AM 75.2 °F 69.8 °F 83% 29.84 in 10.0 mi South 16.1 mph 24.2 mph N/A   Mostly Cloudy
10:23 AM 75.2 °F 69.8 °F 83% 29.84 in 10.0 mi South 15.0 mph 26.5 mph N/A   Scattered Clouds
10:43 AM 77.0 °F 69.8 °F 78% 29.83 in 10.0 mi South 15.0 mph 23.0 mph N/A   Scattered Clouds
11:03 AM 77.0 °F 69.8 °F 78% 29.82 in 10.0 mi South 17.3 mph 27.6 mph N/A   Scattered Clouds
11:23 AM 77.0 °F 69.8 °F 78% 29.82 in 10.0 mi South 16.1 mph 25.3 mph N/A   Clear
11:43 AM 77.0 °F 69.8 °F 78% 29.82 in 10.0 mi South 17.3 mph 23.0 mph N/A   Clear
12:03 PM 77.0 °F 69.8 °F 78% 29.82 in 10.0 mi South 18.4 mph 28.8 mph N/A   Clear
12:23 PM 77.0 °F 68.0 °F 74% 29.82 in 10.0 mi South 16.1 mph 24.2 mph N/A   Scattered Clouds
12:43 PM 77.0 °F 68.0 °F 74% 29.83 in 10.0 mi South 12.7 mph 23.0 mph N/A   Scattered Clouds
1:03 PM 71.6 °F 60.8 °F 69% 29.85 in 10.0 mi West 16.1 mph 24.2 mph N/A   Mostly Cloudy
1:23 PM 66.2 °F 64.4 °F 94% 29.87 in 1.5 mi WSW 13.8 mph 27.6 mph N/A Rain Heavy Rain
1:44 PM 64.4 °F 64.4 °F 100% 29.84 in 1.5 mi SSW 6.9 mph 16.1 mph N/A Rain Heavy Rain
2:04 PM 64.4 °F 64.4 °F 100% 29.85 in 7.0 mi SSW 9.2 mph 16.1 mph N/A Rain Light Rain
2:24 PM 64.4 °F 64.4 °F 100% 29.86 in 7.0 mi SSW 10.4 mph 16.1 mph N/A Rain Rain
3:44 PM 64.4 °F 60.8 °F 88% 29.90 in 7.0 mi NW 13.8 mph 21.9 mph N/A Rain Light Rain
4:24 PM 60.8 °F 59.0 °F 94% 29.92 in 10.0 mi NW 9.2 mph 16.1 mph N/A   Overcast
4:44 PM 60.8 °F 57.2 °F 88% 29.92 in 5.0 mi WNW 8.1 mph 17.3 mph N/A   Overcast
5:04 PM 60.8 °F 57.2 °F 88% 29.92 in 10.0 mi NW 4.6 mph - N/A   Overcast
5:24 PM 60.8 °F 57.2 °F 88% 29.92 in 10.0 mi NW 4.6 mph - N/A   Mostly Cloudy
5:44 PM 62.6 °F 57.2 °F 82% 29.92 in 10.0 mi NNW 3.5 mph - N/A   Overcast
6:04 PM 62.6 °F 57.2 °F 82% 29.92 in 10.0 mi NNW 5.8 mph - N/A   Overcast
6:24 PM 62.6 °F 55.4 °F 77% 29.93 in 10.0 mi NNW 4.6 mph - N/A   Overcast
6:44 PM 62.6 °F 55.4 °F 77% 29.94 in 10.0 mi NNW 4.6 mph - N/A   Overcast
7:04 PM 62.6 °F 57.2 °F 82% 29.95 in 10.0 mi Calm Calm - N/A   Overcast
7:24 PM 62.6 °F 55.4 °F 77% 29.96 in 10.0 mi NW 4.6 mph - N/A   Overcast
7:44 PM 64.4 °F 55.4 °F 73% 29.97 in 10.0 mi NNW 5.8 mph - N/A   Overcast
8:04 PM 64.4 °F 55.4 °F 73% 29.97 in 10.0 mi WNW 6.9 mph - N/A   Overcast
8:24 PM 64.4 °F 55.4 °F 73% 29.98 in 10.0 mi WNW 9.2 mph - N/A   Overcast
8:44 PM 64.4 °F 53.6 °F 68% 29.99 in 10.0 mi NW 10.4 mph - N/A   Overcast
9:04 PM 64.4 °F 51.8 °F 64% 29.99 in 10.0 mi NW 11.5 mph - N/A   Mostly Cloudy
9:24 PM 64.4 °F 50.0 °F 59% 29.99 in 10.0 mi NW 11.5 mph 20.7 mph N/A   Mostly Cloudy
9:44 PM 62.6 °F 48.2 °F 59% 30.00 in 10.0 mi NW 15.0 mph 20.7 mph N/A   Mostly Cloudy
10:05 PM 62.6 °F 48.2 °F 59% 30.00 in 10.0 mi NW 12.7 mph 21.9 mph N/A   Scattered Clouds
10:25 PM 62.6 °F 48.2 °F 59% 30.01 in 10.0 mi NW 13.8 mph 20.7 mph N/A   Scattered Clouds
10:45 PM 62.6 °F 46.4 °F 55% 30.02 in 10.0 mi NW 12.7 mph 19.6 mph N/A   Clear
11:05 PM 62.6 °F 46.4 °F 55% 30.03 in 10.0 mi NW 10.4 mph 16.1 mph N/A   Clear
11:25 PM 62.6 °F 46.4 °F 55% 30.04 in 10.0 mi NW 10.4 mph 18.4 mph N/A   Clear
11:45 PM 62.6 °F 42.8 °F 48% 30.05 in 10.0 mi NW 11.5 mph 23.0 mph N/A   Clear